GW4240 Weather Reports


Display with metric or nautical units.
time (UTC)temp
F
wind
direction
speed
MPH
gust
MPH
rain 1hr
in
rain 24hr
in
rain mn
in
humidity
%
barometer
mb
20260505125023 54 105 4.0 8.0 0.00 0.00 0.00 89 1013.2
20260505124545 54 133 4.0 8.0 0.00 0.00 0.00 89 1013.1
20260505124022 54 126 4.0 6.0 0.00 0.00 0.00 89 1013.1
20260505123522 54 133 4.0 7.0 0.00 0.00 0.00 89 1013.2
20260505123049 54 149 4.0 7.0 0.00 0.00 0.00 89 1013.1
20260505122522 54 108 4.0 7.0 0.00 0.00 0.00 89 1013.0
20260505122025 54 138 4.0 7.0 0.00 0.00 0.00 88 1012.9
20260505121543 55 98 3.0 6.0 0.00 0.00 0.00 88 1012.8
20260505121022 55 98 4.0 6.0 0.00 0.00 0.00 88 1012.8
20260505120522 55 148 3.0 5.0 0.00 0.00 0.00 88 1012.8
20260505120048 55 116 1.0 5.0 0.00 0.00 0.00 88 1012.7
20260505115522 55 131 3.0 7.0 0.00 0.00 0.00 87 1012.7
20260505115022 55 120 3.0 7.0 0.00 0.00 0.00 87 1012.6
20260505114541 55 95 4.0 7.0 0.00 0.00 0.00 87 1012.5
20260505114022 55 139 4.0 7.0 0.00 0.00 0.00 87 1012.4
20260505113522 55 108 4.0 7.0 0.00 0.00 0.00 87 1012.4
20260505113106 56 146 3.0 7.0 0.00 0.00 0.00 87 1012.3
20260505112524 56 105 4.0 7.0 0.00 0.00 0.00 87 1012.3
20260505112021 56 131 2.0 6.0 0.00 0.00 0.00 87 1012.3
20260505111537 56 126 3.0 6.0 0.00 0.00 0.00 87 1012.3
20260505111027 56 111 3.0 8.0 0.00 0.00 0.00 86 1012.1
20260505110523 56 113 4.0 8.0 0.00 0.00 0.00 85 1012.2
20260505102022 56 108 3.0 6.0 0.00 0.00 0.00 85 1011.7
20260505101542 56 95 4.0 7.0 0.00 0.00 0.00 84 1011.7
20260505101023 56 85 4.0 7.0 0.00 0.00 0.00 85 1011.7
20260505100524 56 118 4.0 7.0 0.00 0.00 0.00 84 1011.6
20260505100041 56 83 4.0 7.0 0.00 0.00 0.00 84 1011.6
20260505095524 56 118 3.0 6.0 0.00 0.00 0.00 84 1011.5
20260505095022 56 82 3.0 6.0 0.00 0.00 0.00 84 1011.5
20260505094547 56 113 3.0 6.0 0.00 0.00 0.00 84 1011.6
20260505094021 56 105 4.0 6.0 0.00 0.00 0.00 83 1011.6
20260505093522 56 101 3.0 7.0 0.00 0.00 0.00 83 1011.5
20260505093051 56 117 4.0 8.0 0.00 0.00 0.00 83 1011.6
20260505092522 56 108 5.0 11.0 0.00 0.00 0.00 83 1011.5
20260505092022 56 113 5.0 11.0 0.00 0.00 0.00 83 1011.4
20260505091543 56 95 5.0 9.0 0.00 0.00 0.00 83 1011.3
20260505091022 56 104 5.0 10.0 0.00 0.00 0.00 83 1011.3
20260505090522 57 122 6.0 11.0 0.00 0.00 0.00 82 1011.3
20260505090042 57 102 6.0 11.0 0.00 0.00 0.00 82 1011.2
20260505085522 57 113 8.0 11.0 0.00 0.00 0.00 81 1011.2
20260505085022 57 98 7.0 11.0 0.00 0.00 0.00 80 1011.2
20260505084547 57 127 6.0 10.0 0.00 0.00 0.00 79 1011.1
20260505084022 58 139 6.0 10.0 0.00 0.00 0.00 79 1011.1
20260505083521 58 127 6.0 12.0 0.00 0.00 0.00 78 1010.9
20260505083048 58 118 6.0 12.0 0.00 0.00 0.00 77 1010.9
20260505082521 58 128 7.0 12.0 0.00 0.00 0.00 77 1010.7
20260505082021 58 128 7.0 10.0 0.00 0.00 0.00 77 1010.5
20260505081538 58 85 6.0 8.0 0.00 0.00 0.00 77 1010.4
20260505081022 58 115 4.0 7.0 0.00 0.00 0.00 77 1010.4
20260505080521 59 137 4.0 7.0 0.00 0.00 0.00 78 1010.3
20260505080047 59 125 3.0 7.0 0.00 0.00 0.00 78 1010.3
20260505075522 59 155 4.0 7.0 0.00 0.00 0.00 77 1010.3
20260505075022 59 120 3.0 6.0 0.00 0.00 0.00 77 1010.2
20260505074542 59 143 4.0 6.0 0.00 0.00 0.00 77 1010.2
20260505074022 59 103 4.0 6.0 0.00 0.00 0.00 77 1010.1
20260505073522 59 123 4.0 7.0 0.00 0.00 0.00 77 1010.0
20260505073038 59 98 4.0 7.0 0.00 0.00 0.00 77 1010.0
20260505072521 59 110 4.0 7.0 0.00 0.00 0.00 77 1010.0
20260505072024 60 117 3.0 6.0 0.00 0.00 0.00 76 1009.9
20260505071547 60 117 4.0 6.0 0.00 0.00 0.00 77 1010.0
20260505071022 60 123 3.0 6.0 0.00 0.00 0.00 77 1009.8
20260505070524 60 128 3.0 7.0 0.00 0.00 0.00 77 1009.8
20260505070044 60 145 3.0 7.0 0.00 0.00 0.00 76 1009.8
20260505065522 60 118 4.0 7.0 0.00 0.00 0.00 76 1009.7
20260505065021 60 166 4.0 5.0 0.00 0.00 0.00 76 1009.7
20260505064537 60 93 4.0 8.0 0.00 0.00 0.00 76 1009.7
20260505064022 60 102 3.0 8.0 0.00 0.00 0.00 76 1009.7
20260505063522 60 112 3.0 7.0 0.00 0.00 0.00 76 1009.7
20260505063038 60 119 4.0 7.0 0.00 0.00 0.00 77 1009.6
20260505062522 60 123 5.0 7.0 0.00 0.00 0.00 77 1009.5
20260505062022 59 97 4.0 6.0 0.00 0.00 0.00 81 1009.5
20260505061541 58 136 2.0 5.0 0.00 0.00 0.00 86 1009.5
20260505061022 57 0 0.0 0.0 0.00 0.00 0.00 87 1009.4
20260505060522 57 0 0.0 0.0 0.00 0.00 0.00 86 1009.4
20260505060042 57 0 0.0 0.0 0.00 0.00 0.00 86 1009.4
20260505055522 57 0 0.0 0.0 0.00 0.00 0.00 86 1009.4
20260505055022 58 0 0.0 0.0 0.00 0.00 0.00 85 1009.4
20260505054545 58 0 0.0 0.0 0.00 0.00 0.00 85 1009.4
20260505054025 58 0 0.0 0.0 0.00 0.00 0.00 84 1009.4
20260505053523 58 0 0.0 0.0 0.00 0.00 0.00 83 1009.4
20260505053106 58 0 0.0 0.0 0.00 0.00 0.00 82 1009.3
20260505052522 59 0 0.0 0.0 0.00 0.00 0.00 81 1009.2
20260505052022 59 0 0.0 0.0 0.00 0.00 0.00 81 1009.2
20260505051540 60 0 0.0 0.0 0.00 0.00 0.00 80 1009.2
20260505051022 60 0 0.0 0.0 0.00 0.00 0.00 79 1009.0
20260505050522 61 0 0.0 0.0 0.00 0.00 0.00 78 1009.0
20260505041544 63 0 0.0 0.0 0.00 0.00 0.00 76 1008.6
20260505041022 63 0 0.0 0.0 0.00 0.00 0.00 74 1008.7
20260505040522 64 0 0.0 0.0 0.00 0.00 0.00 73 1008.6
20260505040047 64 0 0.0 0.0 0.00 0.00 0.00 73 1008.6
20260505035524 65 0 0.0 0.0 0.00 0.00 0.00 72 1008.4
20260505035021 65 0 0.0 0.0 0.00 0.00 0.00 72 1008.4
20260505034554 66 0 0.0 0.0 0.00 0.00 0.00 70 1008.3
20260505034022 66 0 0.0 0.0 0.00 0.00 0.00 67 1008.3
20260505033527 67 0 0.0 0.0 0.00 0.00 0.00 65 1008.2
20260505033050 67 0 0.0 0.0 0.00 0.00 0.00 63 1008.2
20260505032525 69 0 0.0 0.0 0.00 0.00 0.00 65 1008.1
20260505032025 70 0 0.0 0.0 0.00 0.00 0.00 63 1007.9
20260505031542 71 0 0.0 0.0 0.00 0.00 0.00 59 1007.9
20260505031025 72 0 0.0 0.0 0.00 0.00 0.00 54 1008.0
20260505030522 73 0 0.0 0.0 0.00 0.00 0.00 54 1008.0
20260505030051 75 0 0.0 0.0 0.00 0.00 0.00 54 1007.9
20260505025524 75 0 0.0 0.0 0.00 0.00 0.00 51 1007.9
20260505025021 75 0 0.0 0.0 0.00 0.00 0.00 50 1007.9
20260505024537 75 0 0.0 0.0 0.00 0.00 0.00 51 1008.0
20260505024025 75 0 0.0 0.0 0.00 0.00 0.00 51 1007.9
20260505023521 75 0 0.0 0.0 0.00 0.00 0.00 50 1008.0
20260505023040 74 0 0.0 0.0 0.00 0.00 0.00 53 1008.0
20260505022521 74 0 0.0 0.0 0.00 0.00 0.00 52 1008.0
20260505022022 74 0 0.0 0.0 0.00 0.00 0.00 52 1008.1
20260505021543 74 0 0.0 0.0 0.00 0.00 0.00 53 1008.2
20260505021022 74 0 0.0 0.0 0.00 0.00 0.00 54 1008.2
20260505020522 73 0 0.0 2.0 0.00 0.00 0.00 55 1008.2
20260505020043 73 0 0.0 3.0 0.00 0.00 0.00 54 1008.3
20260505015522 73 129 1.0 3.0 0.00 0.00 0.00 55 1008.3
20260505015022 73 161 1.0 4.0 0.00 0.00 0.00 55 1008.3
20260505014542 73 143 2.0 5.0 0.00 0.00 0.00 56 1008.3
20260505014020 72 172 2.0 5.0 0.00 0.00 0.00 57 1008.3
20260505013523 72 123 3.0 5.0 0.00 0.00 0.00 55 1008.4
20260505013037 73 129 2.0 6.0 0.00 0.00 0.00 56 1008.5
20260505012522 73 166 3.0 6.0 0.00 0.00 0.00 56 1008.4
20260505012022 73 174 2.0 5.0 0.00 0.00 0.00 55 1008.6
20260505011555 73 151 2.0 5.0 0.00 0.00 0.00 56 1008.6
20260505011023 74 121 3.0 5.0 0.00 0.00 0.00 55 1008.6
20260505010522 74 200 2.0 5.0 0.00 0.00 0.00 55 1008.6
20260505010037 74 101 2.0 5.0 0.00 0.00 0.00 53 1008.7
20260505005521 75 221 1.0 5.0 0.00 0.00 0.00 54 1008.6
20260505005022 74 212 1.0 5.0 0.00 0.00 0.00 54 1008.7
20260505004542 74 195 1.0 5.0 0.00 0.00 0.00 54 1008.6
20260505004021 75 155 1.0 5.0 0.00 0.00 0.00 54 1008.6
20260505003521 75 201 2.0 4.0 0.00 0.00 0.00 54 1008.6
20260505003040 75 218 2.0 5.0 0.00 0.00 0.00 53 1008.6
20260505002524 75 241 2.0 5.0 0.00 0.00 0.00 52 1008.6
20260505002022 75 214 2.0 5.0 0.00 0.00 0.00 52 1008.7
20260505001538 75 237 2.0 5.0 0.00 0.00 0.00 50 1008.7
20260505001021 75 210 2.0 6.0 0.00 0.00 0.00 51 1008.6
20260505000521 75 130 2.0 6.0 0.00 0.00 0.00 52 1008.7
20260505000111 75 225 2.0 5.0 0.00 0.00 0.00 52 1008.7
20260504235522 75 134 2.0 4.0 0.00 0.00 0.00 50 1008.8
20260504235022 75 224 0.0 5.0 0.00 0.00 0.00 51 1008.8
20260504234544 75 224 1.0 5.0 0.00 0.00 0.00 49 1008.9
20260504234021 75 238 2.0 4.0 0.00 0.00 0.00 51 1008.9
20260504233524 75 116 2.0 3.0 0.00 0.00 0.00 52 1009.0
20260504233057 74 206 1.0 4.0 0.00 0.00 0.00 50 1009.0
20260504232522 74 146 2.0 4.0 0.00 0.00 0.00 50 1009.0
20260504232021 74 206 2.0 4.0 0.00 0.00 0.00 49 1009.1
20260504231541 74 219 2.0 4.0 0.00 0.00 0.00 49 1009.1
20260504231021 74 148 1.0 3.0 0.00 0.00 0.00 50 1009.1
20260504230522 73 194 1.0 3.0 0.00 0.00 0.00 50 1009.1
20260504230037 72 124 0.0 4.0 0.00 0.00 0.00 50 1009.1
20260504225522 72 250 2.0 4.0 0.00 0.00 0.00 53 1009.3
20260504225021 71 262 2.0 4.0 0.00 0.00 0.00 53 1009.3
20260504224541 70 253 1.0 4.0 0.00 0.00 0.00 54 1009.3
20260504224021 70 143 1.0 4.0 0.00 0.00 0.00 58 1009.4
20260504223521 69 138 2.0 4.0 0.00 0.00 0.00 59 1009.4
20260504223042 69 135 2.0 4.0 0.00 0.00 0.00 64 1009.4
20260504222520 68 128 2.0 6.0 0.00 0.00 0.00 66 1009.4
20260504222023 68 132 3.0 6.0 0.00 0.00 0.00 69 1009.4
20260504221542 69 136 4.0 6.0 0.00 0.00 0.00 68 1009.5
20260504221022 70 136 3.0 5.0 0.00 0.00 0.00 67 1009.5
20260504220522 70 145 3.0 5.0 0.00 0.00 0.00 65 1009.5
20260504220037 71 167 2.0 5.0 0.00 0.00 0.00 62 1009.4
20260504215521 72 174 3.0 5.0 0.00 0.00 0.00 57 1009.5
20260504215022 72 129 2.0 4.0 0.00 0.00 0.00 55 1009.4
20260504214538 72 153 1.0 5.0 0.00 0.00 0.00 56 1009.5
20260504214021 72 237 1.0 5.0 0.00 0.00 0.00 58 1009.5
20260504213521 72 152 2.0 5.0 0.00 0.00 0.00 57 1009.6
20260504213041 72 180 2.0 5.0 0.00 0.00 0.00 56 1009.6
20260504212521 73 176 2.0 5.0 0.00 0.00 0.00 53 1009.6
20260504212020 73 277 2.0 5.0 0.00 0.00 0.00 51 1009.6
20260504211541 73 168 2.0 5.0 0.00 0.00 0.00 49 1009.7
20260504211021 73 266 1.0 6.0 0.00 0.00 0.00 51 1009.7
20260504210521 73 265 2.0 6.0 0.00 0.00 0.00 48 1009.7
20260504210041 73 134 2.0 6.0 0.00 0.00 0.00 49 1009.7
20260504205521 73 197 1.0 6.0 0.00 0.00 0.00 50 1009.8
20260504205021 73 272 2.0 6.0 0.00 0.00 0.00 48 1009.9
20260504204538 73 200 2.0 6.0 0.00 0.00 0.00 53 1009.8
20260504204021 73 143 2.0 5.0 0.00 0.00 0.00 55 1009.8
20260504203521 73 201 3.0 5.0 0.00 0.00 0.00 49 1009.9
20260504203049 73 174 1.0 6.0 0.00 0.00 0.00 50 1009.9
20260504202521 73 167 3.0 6.0 0.00 0.00 0.00 48 1010.1
20260504202021 73 167 3.0 5.0 0.00 0.00 0.00 51 1010.1
20260504201544 73 153 1.0 5.0 0.00 0.00 0.00 52 1010.1
20260504201021 73 281 2.0 5.0 0.00 0.00 0.00 49 1010.2
20260504200521 73 204 1.0 5.0 0.00 0.00 0.00 56 1010.2
20260504200038 72 270 0.0 4.0 0.00 0.00 0.00 51 1010.2
20260504195520 72 174 1.0 4.0 0.00 0.00 0.00 53 1010.2
20260504195021 71 259 2.0 6.0 0.00 0.00 0.00 51 1010.3
20260504194545 70 263 2.0 7.0 0.00 0.00 0.00 56 1010.4
20260504194022 70 276 4.0 7.0 0.00 0.00 0.00 52 1010.4
20260504193522 71 295 3.0 5.0 0.00 0.00 0.00 51 1010.4
20260504193036 71 226 2.0 7.0 0.00 0.00 0.00 53 1010.3
20260504192521 70 217 2.0 8.0 0.00 0.00 0.00 54 1010.3
20260504192021 70 283 4.0 8.0 0.00 0.00 0.00 51 1010.4
20260504191602 70 259 4.0 8.0 0.00 0.00 0.00 51 1010.3
20260504191022 70 270 3.0 7.0 0.00 0.00 0.00 54 1010.2
20260504190522 70 269 4.0 7.0 0.00 0.00 0.00 52 1010.4
20260504190041 70 307 3.0 7.0 0.00 0.00 0.00 52 1010.3
20260504185520 69 303 4.0 9.0 0.00 0.00 0.00 53 1010.4
20260504185021 69 262 5.0 9.0 0.00 0.00 0.00 54 1010.4
20260504184541 69 249 4.0 9.0 0.00 0.00 0.00 54 1010.4
20260504184022 69 270 3.0 9.0 0.00 0.00 0.00 55 1010.4
20260504183522 69 246 4.0 9.0 0.00 0.00 0.00 53 1010.5
20260504183041 69 266 4.0 8.0 0.00 0.00 0.00 54 1010.6
20260504182521 69 229 4.0 9.0 0.00 0.00 0.00 54 1010.4
20260504182023 69 273 4.0 9.0 0.00 0.00 0.00 55 1010.4
20260504181538 69 212 5.0 8.0 0.00 0.00 0.00 54 1010.4
20260504181021 69 262 4.0 10.0 0.00 0.00 0.00 55 1010.4
20260504180523 69 232 4.0 10.0 0.00 0.00 0.00 55 1010.5
20260504180037 69 234 4.0 8.0 0.00 0.00 0.00 54 1010.4
20260504175521 69 277 3.0 8.0 0.00 0.00 0.00 56 1010.4
20260504175022 69 264 3.0 8.0 0.00 0.00 0.00 56 1010.4
20260504174541 69 243 3.0 7.0 0.00 0.00 0.00 55 1010.4
20260504174022 68 236 4.0 7.0 0.00 0.00 0.00 59 1010.4
20260504173520 68 288 3.0 8.0 0.00 0.00 0.00 60 1010.4
20260504173040 67 276 6.0 8.0 0.00 0.00 0.00 59 1010.4
20260504172520 68 271 5.0 7.0 0.00 0.00 0.00 60 1010.5
20260504172020 68 226 2.0 7.0 0.00 0.00 0.00 62 1010.5
20260504171547 68 238 3.0 7.0 0.00 0.00 0.00 62 1010.5
20260504171022 67 230 3.0 8.0 0.00 0.00 0.00 64 1010.6
20260504170521 67 241 3.0 8.0 0.00 0.00 0.00 65 1010.6
20260504151021 63 122 0.0 2.0 0.00 0.00 0.00 83 1010.7
20260504150522 61 0 1.0 2.0 0.00 0.00 0.00 83 1010.5
20260504141024 57 0 0.0 0.0 0.00 0.00 0.00 86 1010.2
20260504140521 57 0 0.0 0.0 0.00 0.00 0.00 86 1010.1
20260504130521 50 301 1.0 3.0 0.00 0.00 0.00 93 1009.7